Fairbanks, AK

11:38 PM AKDT on September 23, 2017 (GMT -0800)
Fairbanks International

Weather History for PAFA - October, 2010

Change the Weather History Date:

Thursday, October 28, 2010

  Actual Average Record
Temperature  
Mean Temperature 28 °F 14 °F  
Max Temperature 36 °F 21 °F 51 °F (2013)
Min Temperature 19 °F 6 °F -17 °F (1953)
Degree Days  
Heating Degree Days 37 51  
Month to date heating degree days 1008 1106  
Since 1 July heating degree days 1807 2100  
Cooling Degree Days 0 0  
Month to date cooling degree days 0 0  
Year to date cooling degree days 66 61  
Moisture  
Dew Point 22 °F    
Average Humidity 72    
Maximum Humidity 89    
Minimum Humidity 61    
Precipitation  
Precipitation T in 0.02 in 0.91 in (1935)
Month to date precipitation 0.28 0.76  
Year to date precipitation 8.20 9.43  
Snow  
Snow T in 0.40 in 4.60 in (1961)
Month to date snowfall 5.1 9.5  
Since 1 July snowfall 5.1 11.3  
Since 1 September snowfall 5.1 11.3  
Snow Depth 2.00 in    
Sea Level Pressure  
Sea Level Pressure 29.29 in    
Wind  
Wind Speed 5 mph (NNE)    
Max Wind Speed 8 mph    
Max Gust Speed -    
Visibility 10 miles    
Events Snow    
T = Trace of Precipitation, MM = Missing Value Source: NWS Daily Summary

Daily Weather History Graph

Daily Weather History Graph

Search for Another Location

Airport or City:

Trip Planner

Search our weather history database for the weather conditions in past years. The results will help you decide how hot, cold, wet, or windy it might be!

Date:

Astronomy

Oct. 28, 2010 Rise Set
Actual Time 9:26 AM AKDT 5:43 PM AKDT
Civil Twilight 8:32 AM AKDT 6:36 PM AKDT
Nautical Twilight 7:34 AM AKDT 7:34 PM AKDT
Astronomical Twilight 6:38 AM AKDT 8:30 PM AKDT
Moon 9:09 PM AKDT (10/28) 4:15 PM AKDT (10/28)
Length of Visible Light 10h 03m
Length of Day
8h 16m
Waning Gibbous, 68% of the Moon is Illuminated
Oct 28
Waning Gibbous
Oct 30
Last Quarter
Nov 5
New
Nov 13
First Quarter
Nov 21
Full

Hourly Weather History & Observations

Time (AKDT) Temp. Windchill Dew Point Humidity Pressure Visibility Wind Dir Wind Speed Gust Speed Precip Events Conditions
12:53 AM 32.0 °F 24.8 °F 21.0 °F 64% 29.53 in 10.0 mi NE 8.1 mph - N/A   Mostly Cloudy
1:53 AM 32.0 °F 25.6 °F 21.0 °F 64% 29.50 in 10.0 mi NNE 6.9 mph - N/A   Mostly Cloudy
2:53 AM 32.0 °F 24.8 °F 21.9 °F 66% 29.48 in 10.0 mi NNE 8.1 mph - N/A   Mostly Cloudy
3:53 AM 30.9 °F 25.2 °F 21.0 °F 67% 29.44 in 10.0 mi NNE 5.8 mph - N/A   Mostly Cloudy
4:53 AM 32.0 °F 26.4 °F 21.0 °F 64% 29.41 in 10.0 mi NNE 5.8 mph - N/A   Mostly Cloudy
5:53 AM 33.1 °F 27.7 °F 21.0 °F 61% 29.39 in 10.0 mi North 5.8 mph - N/A   Mostly Cloudy
6:53 AM 30.0 °F 24.1 °F 21.0 °F 69% 29.37 in 10.0 mi North 5.8 mph - N/A   Mostly Cloudy
7:53 AM 32.0 °F 26.4 °F 21.9 °F 66% 29.36 in 10.0 mi North 5.8 mph - N/A   Overcast
8:53 AM 34.0 °F 28.0 °F 23.0 °F 64% 29.34 in 10.0 mi NNE 6.9 mph - N/A   Mostly Cloudy
9:53 AM 32.0 °F 26.4 °F 21.9 °F 66% 29.32 in 10.0 mi NNE 5.8 mph - N/A   Overcast
10:53 AM 28.0 °F - 23.0 °F 81% 29.31 in 10.0 mi Calm Calm - N/A   Mostly Cloudy
11:53 AM 28.9 °F - 21.9 °F 75% 29.30 in 10.0 mi Calm Calm - N/A   Overcast
12:53 PM 32.0 °F - 24.1 °F 73% 29.29 in 10.0 mi Calm Calm - N/A   Overcast
1:53 PM 34.0 °F - 25.0 °F 70% 29.27 in 10.0 mi Calm Calm - N/A   Mostly Cloudy
2:53 PM 35.1 °F - 25.0 °F 67% 29.24 in 10.0 mi Calm Calm - N/A   Mostly Cloudy
3:53 PM 34.0 °F - 24.1 °F 67% 29.21 in 10.0 mi Calm Calm - N/A   Mostly Cloudy
4:53 PM 30.0 °F - 23.0 °F 75% 29.19 in 10.0 mi Calm Calm - N/A   Mostly Cloudy
5:53 PM 28.9 °F 22.8 °F 21.9 °F 75% 29.18 in 10.0 mi SSW 5.8 mph - N/A   Mostly Cloudy
6:53 PM 26.1 °F - 19.9 °F 78% 29.16 in 10.0 mi Calm Calm - 0.00 in Snow Light Snow
7:53 PM 26.1 °F - 19.9 °F 78% 29.16 in 10.0 mi Calm Calm - 0.00 in Snow Light Snow
8:53 PM 23.0 °F 18.4 °F 19.0 °F 85% 29.12 in 9.0 mi NE 3.5 mph - 0.00 in   Mostly Cloudy
9:53 PM 19.9 °F 13.4 °F 17.1 °F 89% 29.11 in 10.0 mi South 4.6 mph - N/A   Scattered Clouds
10:53 PM 24.1 °F - 19.0 °F 81% 29.11 in 10.0 mi Calm Calm - N/A   Mostly Cloudy
11:53 PM 24.1 °F - 19.9 °F 84% 29.08 in 10.0 mi Calm Calm - N/A   Mostly Cloudy